date,time,SUV Intensity [MED/Hr],UV Index,Daily total [MED],Since Last [MED]
08/04/2023,00:01:00,-0.000,0.0,0.0,0.0
08/04/2023,00:02:00,0.000,0.0,0.0,0.0
08/04/2023,00:02:59,-0.000,0.0,0.0,0.0
08/04/2023,00:04:00,0.000,0.0,0.0,0.0
08/04/2023,00:04:59,0.000,0.0,0.0,0.0
08/04/2023,00:06:00,0.000,0.0,0.0,0.0
08/04/2023,00:06:59,0.000,0.0,0.0,0.0
08/04/2023,00:08:00,0.000,0.0,0.0,0.0
08/04/2023,00:09:00,-0.000,0.0,0.0,0.0
08/04/2023,00:10:00,0.000,0.0,0.0,0.0
08/04/2023,00:11:00,0.000,0.0,0.0,0.0
08/04/2023,00:12:00,0.000,0.0,0.0,0.0
08/04/2023,00:13:00,0.000,0.0,0.0,0.0
08/04/2023,00:14:00,-0.000,0.0,0.0,0.0
08/04/2023,00:14:59,0.000,0.0,0.0,0.0
08/04/2023,00:16:00,-0.000,0.0,0.0,0.0
08/04/2023,00:17:00,0.000,0.0,0.0,0.0
08/04/2023,00:18:00,0.001,0.0,0.0,0.0
08/04/2023,00:18:59,-0.000,0.0,0.0,0.0
08/04/2023,00:20:00,-0.000,0.0,0.0,0.0
08/04/2023,00:21:00,-0.000,0.0,0.0,0.0
08/04/2023,00:22:00,-0.000,0.0,0.0,0.0
08/04/2023,00:23:00,0.000,0.0,0.0,0.0
08/04/2023,00:24:00,0.000,0.0,0.0,0.0
08/04/2023,00:25:00,-0.000,0.0,0.0,0.0
08/04/2023,00:25:59,0.000,0.0,0.0,0.0
08/04/2023,00:27:00,0.000,0.0,0.0,0.0
08/04/2023,00:28:00,0.000,0.0,0.0,0.0
08/04/2023,00:29:00,0.000,0.0,0.0,0.0
08/04/2023,00:30:00,-0.000,0.0,0.0,0.0
08/04/2023,00:30:59,0.000,0.0,0.0,0.0
08/04/2023,00:32:00,-0.000,0.0,0.0,0.0
08/04/2023,00:33:00,-0.000,0.0,0.0,0.0
08/04/2023,00:34:00,-0.000,0.0,0.0,0.0
08/04/2023,00:35:00,0.000,0.0,0.0,0.0
08/04/2023,00:36:00,0.000,0.0,0.0,0.0
08/04/2023,00:37:00,0.000,0.0,0.0,0.0
08/04/2023,00:37:59,0.001,0.0,0.0,0.0
08/04/2023,00:39:00,0.000,0.0,0.0,0.0
08/04/2023,00:39:59,0.000,0.0,0.0,0.0
08/04/2023,00:41:22,0.000,0.0,0.0,0.0
08/04/2023,00:42:01,0.000,0.0,0.0,0.0
08/04/2023,00:43:01,0.000,0.0,0.0,0.0
08/04/2023,00:44:00,0.000,0.0,0.0,0.0
08/04/2023,00:45:00,0.000,0.0,0.0,0.0
08/04/2023,00:46:00,0.000,0.0,0.0,0.0
08/04/2023,00:46:59,0.000,0.0,0.0,0.0
08/04/2023,00:48:22,0.000,0.0,0.0,0.0
08/04/2023,00:48:59,-0.000,0.0,0.0,0.0
08/04/2023,00:50:00,0.000,0.0,0.0,0.0
08/04/2023,00:51:00,0.000,0.0,0.0,0.0
08/04/2023,00:52:00,-0.000,0.0,0.0,0.0
08/04/2023,00:53:00,0.000,0.0,0.0,0.0
08/04/2023,00:54:00,0.000,0.0,0.0,0.0
08/04/2023,00:55:00,0.000,0.0,0.0,0.0
08/04/2023,00:56:00,0.001,0.0,0.0,0.0
08/04/2023,00:57:00,0.001,0.0,0.0,0.0
08/04/2023,00:58:00,0.000,0.0,0.0,0.0
08/04/2023,00:59:00,0.000,0.0,0.0,0.0
08/04/2023,00:59:59,0.001,0.0,0.0,0.0
08/04/2023,01:01:00,0.001,0.0,0.0,0.0
08/04/2023,01:02:00,0.001,0.0,0.0,0.0
08/04/2023,01:03:00,0.001,0.0,0.0,0.0
08/04/2023,01:03:59,0.000,0.0,0.0,0.0
08/04/2023,01:05:00,0.001,0.0,0.0,0.0
08/04/2023,01:05:59,-0.000,0.0,0.0,0.0
08/04/2023,01:06:59,0.000,0.0,0.0,0.0
08/04/2023,01:08:00,0.001,0.0,0.0,0.0
08/04/2023,01:09:00,0.000,0.0,0.0,0.0
08/04/2023,01:10:00,0.001,0.0,0.0,0.0
08/04/2023,01:11:00,0.000,0.0,0.0,0.0
08/04/2023,01:12:00,0.001,0.0,0.0,0.0
08/04/2023,01:13:00,0.001,0.0,0.0,0.0
08/04/2023,01:14:00,0.001,0.0,0.0,0.0
08/04/2023,01:15:00,0.001,0.0,0.0,0.0
08/04/2023,01:16:00,0.002,0.0,0.0,0.0
08/04/2023,01:17:00,0.001,0.0,0.0,0.0
08/04/2023,01:17:59,0.001,0.0,0.0,0.0
08/04/2023,01:19:00,0.001,0.0,0.0,0.0
08/04/2023,01:20:00,0.002,0.0,0.0,0.0
08/04/2023,01:21:00,0.001,0.0,0.0,0.0
08/04/2023,01:22:00,0.001,0.0,0.0,0.0
08/04/2023,01:23:00,0.002,0.0,0.0,0.0
08/04/2023,01:24:00,0.001,0.0,0.0,0.0
08/04/2023,01:25:00,0.001,0.0,0.0,0.0
08/04/2023,01:26:00,-0.000,0.0,0.0,0.0
08/04/2023,01:27:00,0.001,0.0,0.0,0.0
08/04/2023,01:28:00,0.000,0.0,0.0,0.0
08/04/2023,01:29:01,0.001,0.0,0.0,0.0
08/04/2023,01:30:00,0.001,0.0,0.0,0.0
08/04/2023,01:31:00,0.001,0.0,0.0,0.0
08/04/2023,01:32:00,0.001,0.0,0.0,0.0
08/04/2023,01:33:00,0.001,0.0,0.0,0.0
08/04/2023,01:34:00,0.001,0.0,0.0,0.0
08/04/2023,01:35:00,0.001,0.0,0.0,0.0
08/04/2023,01:36:00,0.001,0.0,0.0,0.0
08/04/2023,01:37:00,0.002,0.0,0.0,0.0
08/04/2023,01:38:00,-0.000,0.0,0.0,0.0
08/04/2023,01:39:00,0.001,0.0,0.0,0.0
08/04/2023,01:40:00,0.001,0.0,0.0,0.0
08/04/2023,01:41:00,0.001,0.0,0.0,0.0
08/04/2023,01:42:00,0.000,0.0,0.0,0.0
08/04/2023,01:43:00,0.001,0.0,0.0,0.0
08/04/2023,01:44:00,0.001,0.0,0.0,0.0
08/04/2023,01:45:00,0.002,0.0,0.0,0.0
08/04/2023,01:46:00,0.001,0.0,0.0,0.0
08/04/2023,01:47:00,-0.000,0.0,0.0,0.0
08/04/2023,01:48:00,0.000,0.0,0.0,0.0
08/04/2023,01:49:00,0.000,0.0,0.0,0.0
08/04/2023,01:50:00,0.001,0.0,0.0,0.0
08/04/2023,01:51:00,0.001,0.0,0.0,0.0
08/04/2023,01:52:00,0.001,0.0,0.0,0.0
08/04/2023,01:53:00,0.001,0.0,0.0,0.0
08/04/2023,01:54:00,0.001,0.0,0.0,0.0
08/04/2023,01:55:00,0.001,0.0,0.0,0.0
08/04/2023,01:56:00,0.001,0.0,0.0,0.0
08/04/2023,01:57:00,0.001,0.0,0.0,0.0
08/04/2023,01:58:00,-0.000,0.0,0.0,0.0
08/04/2023,01:59:00,0.000,0.0,0.0,0.0
08/04/2023,02:00:00,-0.000,0.0,0.0,0.0
08/04/2023,02:01:00,0.002,0.0,0.0,0.0
08/04/2023,02:02:00,0.001,0.0,0.0,0.0
08/04/2023,02:03:00,0.001,0.0,0.0,0.0
08/04/2023,02:04:00,0.001,0.0,0.0,0.0
08/04/2023,02:05:00,0.002,0.0,0.0,0.0
08/04/2023,02:06:00,0.001,0.0,0.0,0.0
08/04/2023,02:07:00,0.000,0.0,0.0,0.0
08/04/2023,02:08:00,0.001,0.0,0.0,0.0
08/04/2023,02:09:00,0.001,0.0,0.0,0.0
08/04/2023,02:10:00,0.001,0.0,0.0,0.0
08/04/2023,02:11:00,-0.000,0.0,0.0,0.0
08/04/2023,02:12:01,0.001,0.0,0.0,0.0
08/04/2023,02:13:00,0.001,0.0,0.0,0.0
08/04/2023,02:14:00,0.000,0.0,0.0,0.0
08/04/2023,02:15:00,0.001,0.0,0.0,0.0
08/04/2023,02:16:00,0.001,0.0,0.0,0.0
08/04/2023,02:17:00,0.000,0.0,0.0,0.0
08/04/2023,02:18:00,0.002,0.0,0.0,0.0
08/04/2023,02:19:00,0.001,0.0,0.0,0.0
08/04/2023,02:20:00,0.002,0.0,0.0,0.0
08/04/2023,02:21:00,0.000,0.0,0.0,0.0
08/04/2023,02:22:00,0.001,0.0,0.0,0.0
08/04/2023,02:23:22,0.001,0.0,0.0,0.0
08/04/2023,02:23:59,-0.000,0.0,0.0,0.0
08/04/2023,02:25:00,-0.000,0.0,0.0,0.0
08/04/2023,02:26:00,-0.000,0.0,0.0,0.0
08/04/2023,02:27:00,0.001,0.0,0.0,0.0
08/04/2023,02:28:00,0.001,0.0,0.0,0.0
08/04/2023,02:29:00,0.001,0.0,0.0,0.0
08/04/2023,02:30:00,-0.000,0.0,0.0,0.0
08/04/2023,02:31:00,0.001,0.0,0.0,0.0
08/04/2023,02:32:00,0.001,0.0,0.0,0.0
08/04/2023,02:33:00,0.002,0.0,0.0,0.0
08/04/2023,02:34:00,-0.000,0.0,0.0,0.0
08/04/2023,02:35:00,-0.000,0.0,0.0,0.0
08/04/2023,02:36:00,0.001,0.0,0.0,0.0
08/04/2023,02:37:00,0.001,0.0,0.0,0.0
08/04/2023,02:38:00,0.000,0.0,0.0,0.0
08/04/2023,02:39:00,0.001,0.0,0.0,0.0
08/04/2023,02:40:00,0.000,0.0,0.0,0.0
08/04/2023,02:41:00,0.001,0.0,0.0,0.0
08/04/2023,02:42:00,0.001,0.0,0.0,0.0
08/04/2023,02:43:00,0.001,0.0,0.0,0.0
08/04/2023,02:44:01,0.001,0.0,0.0,0.0
08/04/2023,02:45:00,0.000,0.0,0.0,0.0
08/04/2023,02:46:00,0.001,0.0,0.0,0.0
08/04/2023,02:47:00,0.001,0.0,0.0,0.0
08/04/2023,02:48:00,0.001,0.0,0.0,0.0
08/04/2023,02:49:00,0.001,0.0,0.0,0.0
08/04/2023,02:50:00,0.001,0.0,0.0,0.0
08/04/2023,02:51:01,0.002,0.0,0.0,0.0
08/04/2023,02:52:00,0.001,0.0,0.0,0.0
08/04/2023,02:53:00,0.000,0.0,0.0,0.0
08/04/2023,02:54:00,0.001,0.0,0.0,0.0
08/04/2023,02:55:00,0.002,0.0,0.0,0.0
08/04/2023,02:56:00,0.001,0.0,0.0,0.0
08/04/2023,02:57:00,0.001,0.0,0.0,0.0
08/04/2023,02:58:00,-0.000,0.0,0.0,0.0
08/04/2023,02:59:00,0.001,0.0,0.0,0.0
08/04/2023,03:00:01,0.002,0.0,0.0,0.0
08/04/2023,03:01:00,0.001,0.0,0.0,0.0
08/04/2023,03:02:00,0.002,0.0,0.0,0.0
08/04/2023,03:03:00,0.001,0.0,0.0,0.0
08/04/2023,03:04:00,0.001,0.0,0.0,0.0
08/04/2023,03:05:00,0.000,0.0,0.0,0.0
08/04/2023,03:06:00,0.002,0.0,0.0,0.0
08/04/2023,03:07:00,0.001,0.0,0.0,0.0
08/04/2023,03:08:00,0.001,0.0,0.0,0.0
08/04/2023,03:09:00,0.002,0.0,0.0,0.0
08/04/2023,03:10:00,0.000,0.0,0.0,0.0
08/04/2023,03:11:00,0.001,0.0,0.0,0.0
08/04/2023,03:12:00,0.002,0.0,0.0,0.0
08/04/2023,03:13:00,0.001,0.0,0.0,0.0
08/04/2023,03:14:00,0.002,0.0,0.0,0.0
08/04/2023,03:15:00,0.000,0.0,0.0,0.0
08/04/2023,03:16:00,0.001,0.0,0.0,0.0
08/04/2023,03:17:00,0.001,0.0,0.0,0.0
08/04/2023,03:18:00,0.001,0.0,0.0,0.0
08/04/2023,03:19:01,0.000,0.0,0.0,0.0
08/04/2023,03:20:00,0.001,0.0,0.0,0.0
08/04/2023,03:21:01,0.002,0.0,0.0,0.0
08/04/2023,03:22:00,0.001,0.0,0.0,0.0
08/04/2023,03:23:00,0.001,0.0,0.0,0.0
08/04/2023,03:24:00,0.001,0.0,0.0,0.0
08/04/2023,03:25:00,0.001,0.0,0.0,0.0
08/04/2023,03:25:59,0.001,0.0,0.0,0.0
08/04/2023,03:27:00,0.001,0.0,0.0,0.0
08/04/2023,03:28:00,0.001,0.0,0.0,0.0
08/04/2023,03:29:00,0.001,0.0,0.0,0.0
08/04/2023,03:30:00,0.001,0.0,0.0,0.0
08/04/2023,03:31:00,0.002,0.0,0.0,0.0
08/04/2023,03:32:00,0.001,0.0,0.0,0.0
08/04/2023,03:33:00,0.001,0.0,0.0,0.0
08/04/2023,03:34:00,0.001,0.0,0.0,0.0
08/04/2023,03:35:00,-0.000,0.0,0.0,0.0
08/04/2023,03:36:00,0.001,0.0,0.0,0.0
08/04/2023,03:37:00,0.001,0.0,0.0,0.0
08/04/2023,03:38:01,0.001,0.0,0.0,0.0
08/04/2023,03:39:01,0.001,0.0,0.0,0.0
08/04/2023,03:40:00,0.001,0.0,0.0,0.0
08/04/2023,03:41:00,0.001,0.0,0.0,0.0
08/04/2023,03:42:00,0.001,0.0,0.0,0.0
08/04/2023,03:43:00,0.001,0.0,0.0,0.0
08/04/2023,03:44:00,0.001,0.0,0.0,0.0
08/04/2023,03:45:00,0.001,0.0,0.0,0.0
08/04/2023,03:46:00,0.002,0.0,0.0,0.0
08/04/2023,03:47:00,0.001,0.0,0.0,0.0
08/04/2023,03:48:00,0.001,0.0,0.0,0.0
08/04/2023,03:49:00,0.001,0.0,0.0,0.0
08/04/2023,03:50:00,0.001,0.0,0.0,0.0
08/04/2023,03:51:00,0.001,0.0,0.0,0.0
08/04/2023,03:52:00,0.002,0.0,0.0,0.0
08/04/2023,03:53:01,0.001,0.0,0.0,0.0
08/04/2023,03:54:00,0.001,0.0,0.0,0.0
08/04/2023,03:55:00,0.001,0.0,0.0,0.0
08/04/2023,03:56:00,0.001,0.0,0.0,0.0
08/04/2023,03:57:00,0.000,0.0,0.0,0.0
08/04/2023,03:58:00,0.001,0.0,0.0,0.0
08/04/2023,03:59:00,0.002,0.0,0.0,0.0
08/04/2023,04:00:00,0.000,0.0,0.0,0.0
08/04/2023,04:01:00,0.000,0.0,0.0,0.0
08/04/2023,04:02:00,0.002,0.0,0.0,0.0
08/04/2023,04:03:00,0.001,0.0,0.0,0.0
08/04/2023,04:04:00,0.002,0.0,0.0,0.0
08/04/2023,04:05:00,0.001,0.0,0.0,0.0
08/04/2023,04:06:00,0.001,0.0,0.0,0.0
08/04/2023,04:07:01,0.001,0.0,0.0,0.0
08/04/2023,04:08:00,0.001,0.0,0.0,0.0
08/04/2023,04:09:01,0.001,0.0,0.0,0.0
08/04/2023,04:10:00,0.001,0.0,0.0,0.0
08/04/2023,04:11:00,0.001,0.0,0.0,0.0
08/04/2023,04:12:00,0.000,0.0,0.0,0.0
08/04/2023,04:13:00,0.001,0.0,0.0,0.0
08/04/2023,04:14:00,0.002,0.0,0.0,0.0
08/04/2023,04:15:01,0.001,0.0,0.0,0.0
08/04/2023,04:16:00,0.002,0.0,0.0,0.0
08/04/2023,04:17:00,0.001,0.0,0.0,0.0
08/04/2023,04:18:00,0.001,0.0,0.0,0.0
08/04/2023,04:19:00,0.000,0.0,0.0,0.0
08/04/2023,04:20:00,0.000,0.0,0.0,0.0
08/04/2023,04:21:00,0.002,0.0,0.0,0.0
08/04/2023,04:22:00,0.001,0.0,0.0,0.0
08/04/2023,04:23:00,0.002,0.0,0.0,0.0
08/04/2023,04:24:00,0.001,0.0,0.0,0.0
08/04/2023,04:25:01,0.001,0.0,0.0,0.0
08/04/2023,04:26:00,0.001,0.0,0.0,0.0
08/04/2023,04:27:00,0.001,0.0,0.0,0.0
08/04/2023,04:28:00,0.001,0.0,0.0,0.0
08/04/2023,04:29:00,0.001,0.0,0.0,0.0
08/04/2023,04:30:00,0.001,0.0,0.0,0.0
08/04/2023,04:31:00,0.002,0.0,0.0,0.0
08/04/2023,04:32:00,0.001,0.0,0.0,0.0
08/04/2023,04:33:00,0.002,0.0,0.0,0.0
08/04/2023,04:34:00,0.000,0.0,0.0,0.0
08/04/2023,04:35:00,0.000,0.0,0.0,0.0
08/04/2023,04:36:04,0.001,0.0,0.0,0.0
08/04/2023,04:37:01,0.001,0.0,0.0,0.0
08/04/2023,04:38:00,0.001,0.0,0.0,0.0
08/04/2023,04:39:00,0.001,0.0,0.0,0.0
08/04/2023,04:40:00,0.002,0.0,0.0,0.0
08/04/2023,04:41:00,0.002,0.0,0.0,0.0
08/04/2023,04:42:00,0.001,0.0,0.0,0.0
08/04/2023,04:43:00,0.001,0.0,0.0,0.0
08/04/2023,04:44:00,0.001,0.0,0.0,0.0
08/04/2023,04:45:00,0.001,0.0,0.0,0.0
08/04/2023,04:46:00,0.001,0.0,0.0,0.0
08/04/2023,04:47:00,0.001,0.0,0.0,0.0
08/04/2023,04:48:00,0.001,0.0,0.0,0.0
08/04/2023,04:49:01,0.001,0.0,0.0,0.0
08/04/2023,04:50:00,0.001,0.0,0.0,0.0
08/04/2023,04:51:00,0.001,0.0,0.0,0.0
08/04/2023,04:52:00,0.001,0.0,0.0,0.0
08/04/2023,04:53:00,0.001,0.0,0.0,0.0
08/04/2023,04:54:00,0.001,0.0,0.0,0.0
08/04/2023,04:55:00,0.001,0.0,0.0,0.0
08/04/2023,04:56:00,0.001,0.0,0.0,0.0
08/04/2023,04:57:00,0.001,0.0,0.0,0.0
08/04/2023,04:58:00,0.000,0.0,0.0,0.0
08/04/2023,04:59:00,0.001,0.0,0.0,0.0
08/04/2023,05:00:00,0.001,0.0,0.0,0.0
08/04/2023,05:01:00,0.001,0.0,0.0,0.0
08/04/2023,05:02:00,0.001,0.0,0.0,0.0
08/04/2023,05:03:00,0.001,0.0,0.0,0.0
08/04/2023,05:04:00,0.001,0.0,0.0,0.0
08/04/2023,05:05:01,0.001,0.0,0.0,0.0
08/04/2023,05:06:00,0.002,0.0,0.0,0.0
08/04/2023,05:07:00,0.001,0.0,0.0,0.0
08/04/2023,05:08:00,0.002,0.0,0.0,0.0
08/04/2023,05:09:00,0.001,0.0,0.0,0.0
08/04/2023,05:10:00,0.002,0.0,0.0,0.0
08/04/2023,05:11:00,0.002,0.0,0.0,0.0
08/04/2023,05:12:00,0.001,0.0,0.0,0.0
08/04/2023,05:13:00,0.002,0.0,0.0,0.0
08/04/2023,05:14:00,0.002,0.0,0.0,0.0
08/04/2023,05:15:00,0.003,0.0,0.0,0.0
08/04/2023,05:16:00,0.002,0.0,0.0,0.0
08/04/2023,05:17:00,0.002,0.0,0.0,0.0
08/04/2023,05:18:01,0.003,0.0,0.0,0.0
08/04/2023,05:19:00,0.002,0.0,0.0,0.0
08/04/2023,05:20:01,0.003,0.0,0.0,0.0
08/04/2023,05:21:00,0.002,0.0,0.0,0.0
08/04/2023,05:22:00,0.002,0.0,0.0,0.0
08/04/2023,05:23:00,0.002,0.0,0.0,0.0
08/04/2023,05:24:00,0.002,0.0,0.0,0.0
08/04/2023,05:25:00,0.002,0.0,0.0,0.0
08/04/2023,05:26:01,0.004,0.0,0.0,0.0
08/04/2023,05:27:00,0.003,0.0,0.0,0.0
08/04/2023,05:28:01,0.003,0.0,0.0,0.0
08/04/2023,05:29:00,0.003,0.0,0.0,0.0
08/04/2023,05:30:00,0.003,0.0,0.0,0.0
08/04/2023,05:31:00,0.003,0.0,0.0,0.0
08/04/2023,05:32:00,0.004,0.0,0.0,0.0
08/04/2023,05:33:01,0.004,0.0,0.0,0.0
08/04/2023,05:34:00,0.004,0.0,0.0,0.0
08/04/2023,05:35:00,0.004,0.0,0.0,0.0
08/04/2023,05:36:00,0.005,0.0,0.0,0.0
08/04/2023,05:37:00,0.005,0.0,0.0,0.0
08/04/2023,05:38:00,0.006,0.0,0.0,0.0
08/04/2023,05:39:00,0.005,0.0,0.0,0.0
08/04/2023,05:40:01,0.006,0.0,0.0,0.0
08/04/2023,05:41:00,0.007,0.0,0.0,0.0
08/04/2023,05:42:01,0.006,0.0,0.0,0.0
08/04/2023,05:43:00,0.007,0.0,0.0,0.0
08/04/2023,05:44:00,0.007,0.0,0.0,0.0
08/04/2023,05:45:00,0.007,0.0,0.0,0.0
08/04/2023,05:46:00,0.008,0.0,0.001,0.001
08/04/2023,05:47:01,0.008,0.0,0.001,0.0
08/04/2023,05:48:00,0.008,0.0,0.001,0.0
08/04/2023,05:49:01,0.009,0.0,0.001,0.0
08/04/2023,05:50:00,0.009,0.0,0.001,0.0
08/04/2023,05:51:01,0.008,0.0,0.001,0.0
08/04/2023,05:51:58,0.010,0.0,0.001,0.0
08/04/2023,05:53:01,0.010,0.0,0.002,0.001
08/04/2023,05:54:00,0.010,0.0,0.002,0.0
08/04/2023,05:55:01,0.010,0.0,0.002,0.0
08/04/2023,05:56:00,0.011,0.0,0.002,0.0
08/04/2023,05:57:01,0.012,0.0,0.002,0.0
08/04/2023,05:58:00,0.012,0.0,0.003,0.001
08/04/2023,05:59:01,0.013,0.0,0.003,0.0
08/04/2023,06:00:00,0.013,0.0,0.003,0.0
08/04/2023,06:01:01,0.014,0.0,0.003,0.0
08/04/2023,06:02:00,0.015,0.0,0.003,0.0
08/04/2023,06:03:01,0.015,0.0,0.004,0.001
08/04/2023,06:04:00,0.016,0.0,0.004,0.0
08/04/2023,06:05:01,0.016,0.0,0.004,0.0
08/04/2023,06:06:00,0.017,0.0,0.004,0.0
08/04/2023,06:07:00,0.018,0.0,0.005,0.001
08/04/2023,06:08:00,0.017,0.0,0.005,0.0
08/04/2023,06:09:00,0.020,0.0,0.005,0.0
08/04/2023,06:10:00,0.020,0.0,0.006,0.001
08/04/2023,06:11:01,0.020,0.0,0.006,0.0
08/04/2023,06:12:00,0.021,0.0,0.006,0.0
08/04/2023,06:13:01,0.022,0.0,0.007,0.001
08/04/2023,06:14:00,0.023,0.0,0.007,0.0
08/04/2023,06:15:01,0.023,0.0,0.007,0.0
08/04/2023,06:16:00,0.024,0.0,0.008,0.001
08/04/2023,06:17:01,0.025,0.0,0.008,0.0
08/04/2023,06:18:00,0.025,0.0,0.009,0.001
08/04/2023,06:19:01,0.025,0.0,0.009,0.0
08/04/2023,06:20:00,0.026,0.0,0.01,0.001
08/04/2023,06:21:00,0.028,0.0,0.01,0.0
08/04/2023,06:22:00,0.029,0.0,0.01,0.0
08/04/2023,06:23:00,0.030,0.0,0.011,0.001
08/04/2023,06:24:01,0.030,0.0,0.011,0.0
08/04/2023,06:25:00,0.031,0.0,0.012,0.001
08/04/2023,06:26:01,0.033,0.0,0.013,0.001
08/04/2023,06:27:00,0.034,0.0,0.013,0.0
08/04/2023,06:28:01,0.036,0.0,0.014,0.001
08/04/2023,06:29:01,0.036,0.0,0.014,0.0
08/04/2023,06:30:00,0.037,0.0,0.015,0.001
08/04/2023,06:31:01,0.038,0.0,0.015,0.0
08/04/2023,06:32:00,0.039,0.0,0.016,0.001
08/04/2023,06:33:01,0.040,0.0,0.017,0.001
08/04/2023,06:34:00,0.041,0.0,0.017,0.0
08/04/2023,06:35:01,0.042,0.0,0.018,0.001
08/04/2023,06:36:00,0.044,0.0,0.019,0.001
08/04/2023,06:37:01,0.045,0.0,0.02,0.001
08/04/2023,06:38:00,0.046,0.0,0.02,0.0
08/04/2023,06:39:00,0.048,0.0,0.021,0.001
08/04/2023,06:40:01,0.049,0.0,0.022,0.001
08/04/2023,06:41:00,0.050,0.0,0.023,0.001
08/04/2023,06:42:01,0.052,0.0,0.024,0.001
08/04/2023,06:43:00,0.054,0.0,0.024,0.0
08/04/2023,06:44:01,0.054,0.0,0.025,0.001
08/04/2023,06:45:00,0.056,0.0,0.026,0.001
08/04/2023,06:46:01,0.056,0.0,0.027,0.001
08/04/2023,06:47:00,0.059,0.0,0.028,0.001
08/04/2023,06:48:00,0.061,0.0,0.029,0.001
08/04/2023,06:49:00,0.062,0.0,0.03,0.001
08/04/2023,06:50:01,0.064,0.0,0.031,0.001
08/04/2023,06:51:00,0.066,0.0,0.032,0.001
08/04/2023,06:52:01,0.067,0.0,0.033,0.001
08/04/2023,06:53:00,0.070,0.0,0.035,0.002
08/04/2023,06:54:00,0.070,0.0,0.036,0.001
08/04/2023,06:55:01,0.072,0.0,0.037,0.001
08/04/2023,06:56:00,0.073,0.0,0.038,0.001
08/04/2023,06:57:00,0.076,0.0,0.039,0.001
08/04/2023,06:58:00,0.078,0.0,0.041,0.002
08/04/2023,06:59:01,0.079,0.0,0.042,0.001
08/04/2023,07:00:00,0.081,0.0,0.043,0.001
08/04/2023,07:01:01,0.083,0.0,0.045,0.002
08/04/2023,07:02:00,0.085,0.0,0.046,0.001
08/04/2023,07:03:00,0.088,0.0,0.047,0.001
08/04/2023,07:04:00,0.090,0.0,0.049,0.002
08/04/2023,07:05:01,0.091,0.0,0.05,0.001
08/04/2023,07:06:00,0.093,0.0,0.052,0.002
08/04/2023,07:07:01,0.095,0.0,0.054,0.002
08/04/2023,07:08:00,0.097,0.0,0.055,0.001
08/04/2023,07:09:01,0.100,0.0,0.057,0.002
08/04/2023,07:10:00,0.101,0.0,0.058,0.001
08/04/2023,07:11:01,0.103,0.0,0.06,0.002
08/04/2023,07:12:00,0.104,0.0,0.062,0.002
08/04/2023,07:13:00,0.106,0.0,0.064,0.002
08/04/2023,07:14:00,0.109,0.0,0.065,0.001
08/04/2023,07:15:01,0.111,0.0,0.067,0.002
08/04/2023,07:16:00,0.113,0.0,0.069,0.002
08/04/2023,07:17:01,0.117,0.0,0.071,0.002
08/04/2023,07:18:00,0.119,0.0,0.073,0.002
08/04/2023,07:19:00,0.122,0.0,0.075,0.002
08/04/2023,07:20:01,0.123,0.0,0.077,0.002
08/04/2023,07:21:00,0.127,0.0,0.079,0.002
08/04/2023,07:22:01,0.130,0.0,0.081,0.002
08/04/2023,07:23:00,0.131,0.0,0.083,0.002
08/04/2023,07:24:00,0.135,0.0,0.086,0.003
08/04/2023,07:25:01,0.138,0.0,0.088,0.002
08/04/2023,07:26:00,0.140,0.0,0.09,0.002
08/04/2023,07:27:01,0.142,0.0,0.093,0.003
08/04/2023,07:28:00,0.146,0.0,0.095,0.002
08/04/2023,07:29:01,0.149,0.0,0.097,0.002
08/04/2023,07:30:00,0.152,0.0,0.1,0.003
08/04/2023,07:31:01,0.154,0.0,0.103,0.003
08/04/2023,07:32:00,0.159,0.0,0.105,0.002
08/04/2023,07:33:01,0.161,0.0,0.108,0.003
08/04/2023,07:34:00,0.165,0.0,0.111,0.003
08/04/2023,07:35:01,0.169,0.0,0.113,0.002
08/04/2023,07:36:00,0.172,0.0,0.116,0.003
08/04/2023,07:37:01,0.177,0.0,0.119,0.003
08/04/2023,07:38:00,0.180,0.0,0.122,0.003
08/04/2023,07:39:00,0.181,0.0,0.125,0.003
08/04/2023,07:40:01,0.183,0.0,0.128,0.003
08/04/2023,07:41:00,0.191,0.0,0.131,0.003
08/04/2023,07:42:01,0.196,0.0,0.134,0.003
08/04/2023,07:43:00,0.200,0.0,0.138,0.004
08/04/2023,07:44:01,0.204,0.0,0.141,0.003
08/04/2023,07:45:00,0.203,0.0,0.145,0.004
08/04/2023,07:46:01,0.206,0.0,0.148,0.003
08/04/2023,07:47:04,0.213,0.0,0.152,0.004
08/04/2023,07:48:01,0.215,0.0,0.155,0.003
08/04/2023,07:49:01,0.222,1.0,0.159,0.004
08/04/2023,07:50:00,0.228,1.0,0.162,0.003
08/04/2023,07:51:01,0.227,1.0,0.166,0.004
08/04/2023,07:52:00,0.231,1.0,0.17,0.004
08/04/2023,07:53:00,0.236,1.0,0.174,0.004
08/04/2023,07:54:01,0.237,1.0,0.178,0.004
08/04/2023,07:55:01,0.241,1.0,0.182,0.004
08/04/2023,07:56:00,0.251,1.0,0.186,0.004
08/04/2023,07:57:01,0.260,1.0,0.19,0.004
08/04/2023,07:58:00,0.266,1.0,0.195,0.005
08/04/2023,07:59:01,0.268,1.0,0.199,0.004
08/04/2023,08:00:01,0.273,1.0,0.204,0.005
08/04/2023,08:01:01,0.275,1.0,0.208,0.004
08/04/2023,08:02:00,0.281,1.0,0.213,0.005
08/04/2023,08:03:01,0.287,1.0,0.217,0.004
08/04/2023,08:04:00,0.293,1.0,0.222,0.005
08/04/2023,08:05:01,0.297,1.0,0.227,0.005
08/04/2023,08:06:00,0.298,1.0,0.232,0.005
08/04/2023,08:07:01,0.302,1.0,0.237,0.005
08/04/2023,08:08:00,0.305,1.0,0.242,0.005
08/04/2023,08:09:01,0.307,1.0,0.247,0.005
08/04/2023,08:10:00,0.306,1.0,0.252,0.005
08/04/2023,08:11:01,0.302,1.0,0.258,0.006
08/04/2023,08:12:01,0.309,1.0,0.263,0.005
08/04/2023,08:13:00,0.309,1.0,0.268,0.005
08/04/2023,08:14:01,0.292,1.0,0.273,0.005
08/04/2023,08:15:01,0.294,1.0,0.278,0.005
08/04/2023,08:16:01,0.285,1.0,0.282,0.004
08/04/2023,08:17:01,0.278,1.0,0.287,0.005
08/04/2023,08:18:00,0.282,1.0,0.292,0.005
08/04/2023,08:19:01,0.294,1.0,0.297,0.005
08/04/2023,08:20:00,0.300,1.0,0.302,0.005
08/04/2023,08:21:01,0.293,1.0,0.307,0.005
08/04/2023,08:22:01,0.293,1.0,0.312,0.005
08/04/2023,08:23:01,0.308,1.0,0.317,0.005
08/04/2023,08:24:00,0.305,1.0,0.322,0.005
08/04/2023,08:25:01,0.306,1.0,0.327,0.005
08/04/2023,08:26:00,0.310,1.0,0.332,0.005
08/04/2023,08:27:01,0.317,1.0,0.337,0.005
08/04/2023,08:28:01,0.322,1.0,0.342,0.005
08/04/2023,08:29:01,0.331,1.0,0.348,0.006
08/04/2023,08:30:00,0.345,1.0,0.353,0.005
08/04/2023,08:31:01,0.351,1.0,0.359,0.006
08/04/2023,08:32:01,0.362,1.0,0.365,0.006
08/04/2023,08:33:00,0.372,1.0,0.371,0.006
08/04/2023,08:34:01,0.374,1.0,0.377,0.006
08/04/2023,08:35:00,0.369,1.0,0.384,0.007
08/04/2023,08:36:01,0.366,1.0,0.39,0.006
08/04/2023,08:37:00,0.370,1.0,0.396,0.006
08/04/2023,08:38:01,0.368,1.0,0.402,0.006
08/04/2023,08:39:00,0.368,1.0,0.408,0.006
08/04/2023,08:40:01,0.367,1.0,0.415,0.007
08/04/2023,08:41:02,0.382,1.0,0.421,0.006
08/04/2023,08:42:01,0.411,1.0,0.427,0.006
08/04/2023,08:43:01,0.423,1.0,0.434,0.007
08/04/2023,08:44:00,0.436,1.0,0.441,0.007
08/04/2023,08:45:01,0.443,1.0,0.449,0.008
08/04/2023,08:46:00,0.448,1.0,0.456,0.007
08/04/2023,08:47:01,0.442,1.0,0.463,0.007
08/04/2023,08:48:00,0.448,1.0,0.471,0.008
08/04/2023,08:49:01,0.440,1.0,0.478,0.007
08/04/2023,08:50:01,0.436,1.0,0.486,0.008
08/04/2023,08:51:01,0.431,1.0,0.493,0.007
08/04/2023,08:52:01,0.428,1.0,0.5,0.007
08/04/2023,08:53:01,0.428,1.0,0.507,0.007
08/04/2023,08:54:01,0.428,1.0,0.514,0.007
08/04/2023,08:55:01,0.425,1.0,0.522,0.008
08/04/2023,08:56:02,0.438,1.0,0.529,0.007
08/04/2023,08:57:00,0.440,1.0,0.536,0.007
08/04/2023,08:58:01,0.442,1.0,0.543,0.007
08/04/2023,08:59:00,0.447,1.0,0.551,0.008
08/04/2023,09:00:01,0.459,1.0,0.558,0.007
08/04/2023,09:01:01,0.472,1.0,0.566,0.008
08/04/2023,09:02:01,0.470,1.0,0.574,0.008
08/04/2023,09:03:01,0.484,1.0,0.582,0.008
08/04/2023,09:04:01,0.505,1.0,0.59,0.008
08/04/2023,09:05:01,0.522,1.0,0.599,0.009
08/04/2023,09:06:00,0.546,1.0,0.608,0.009
08/04/2023,09:07:01,0.536,1.0,0.617,0.009
08/04/2023,09:08:00,0.538,1.0,0.626,0.009
08/04/2023,09:09:01,0.552,1.0,0.635,0.009
08/04/2023,09:10:00,0.539,1.0,0.644,0.009
08/04/2023,09:11:01,0.532,1.0,0.653,0.009
08/04/2023,09:12:00,0.517,1.0,0.662,0.009
08/04/2023,09:13:01,0.507,1.0,0.67,0.008
08/04/2023,09:14:00,0.514,1.0,0.679,0.009
08/04/2023,09:15:01,0.530,1.0,0.687,0.008
08/04/2023,09:16:00,0.549,1.0,0.696,0.009
08/04/2023,09:17:01,0.570,1.0,0.706,0.01
08/04/2023,09:18:00,0.584,1.0,0.715,0.009
08/04/2023,09:19:02,0.613,1.0,0.726,0.011
08/04/2023,09:20:01,0.634,1.0,0.736,0.01
08/04/2023,09:21:01,0.653,2.0,0.746,0.01
08/04/2023,09:22:00,0.676,2.0,0.757,0.011
08/04/2023,09:23:01,0.690,2.0,0.769,0.012
08/04/2023,09:24:00,0.699,2.0,0.78,0.011
08/04/2023,09:25:01,0.703,2.0,0.792,0.012
08/04/2023,09:26:00,0.706,2.0,0.804,0.012
08/04/2023,09:27:00,0.711,2.0,0.816,0.012
08/04/2023,09:28:01,0.723,2.0,0.828,0.012
08/04/2023,09:29:00,0.729,2.0,0.84,0.012
08/04/2023,09:30:01,0.735,2.0,0.852,0.012
08/04/2023,09:31:00,0.739,2.0,0.864,0.012
08/04/2023,09:32:01,0.746,2.0,0.876,0.012
08/04/2023,09:33:00,0.756,2.0,0.889,0.013
08/04/2023,09:34:01,0.761,2.0,0.902,0.013
08/04/2023,09:35:00,0.763,2.0,0.914,0.012
08/04/2023,09:36:01,0.767,2.0,0.927,0.013
08/04/2023,09:37:00,0.770,2.0,0.94,0.013
08/04/2023,09:38:01,0.779,2.0,0.953,0.013
08/04/2023,09:39:00,0.785,2.0,0.966,0.013
08/04/2023,09:40:01,0.790,2.0,0.979,0.013
08/04/2023,09:41:00,0.797,2.0,0.992,0.013
08/04/2023,09:42:01,0.799,2.0,1.006,0.014
08/04/2023,09:43:00,0.808,2.0,1.019,0.013
08/04/2023,09:44:01,0.812,2.0,1.033,0.014
08/04/2023,09:45:01,0.821,2.0,1.046,0.013
08/04/2023,09:46:01,0.826,2.0,1.06,0.014
08/04/2023,09:47:01,0.831,2.0,1.074,0.014
08/04/2023,09:48:00,0.840,2.0,1.088,0.014
08/04/2023,09:49:01,0.846,2.0,1.102,0.014
08/04/2023,09:50:00,0.851,2.0,1.116,0.014
08/04/2023,09:51:01,0.854,2.0,1.13,0.014
08/04/2023,09:52:00,0.865,2.0,1.144,0.014
08/04/2023,09:53:01,0.865,2.0,1.159,0.015
08/04/2023,09:54:00,0.873,2.0,1.173,0.014
08/04/2023,09:55:01,0.882,2.0,1.188,0.015
08/04/2023,09:56:01,0.892,2.0,1.203,0.015
08/04/2023,09:57:01,0.898,2.0,1.218,0.015
08/04/2023,09:58:01,0.908,2.0,1.233,0.015
08/04/2023,09:59:01,0.912,2.0,1.248,0.015
08/04/2023,10:00:01,0.919,2.0,1.263,0.015
08/04/2023,10:01:01,0.926,2.0,1.278,0.015
08/04/2023,10:02:00,0.931,2.0,1.294,0.016
08/04/2023,10:03:01,0.936,2.0,1.309,0.015